Regional Weather Roundup
Issued by NWS Nashville, TN

Home | Current Version | Previous Version | Text Only | Print | Product List | Glossary On
Versions: 1 2 3 4 5 6 7 8 9 10 11 12 13 14 15 16 17 18 19 20 21 22 23 24 25 26 27 28 29 30 31 32 33 34 35 36 37 38 39 40 41 42 43 44 45 46 47 48 49 50
000
ASUS44 KOHX 180015
RWROHX
MIDDLE TENNESSEE HOURLY WEATHER ROUNDUP
NATIONAL WEATHER SERVICE NASHVILLE TN
700 PM CDT THU APR 17 2014

NOTE: "FAIR" INDICATES FEW OR NO CLOUDS BELOW 12,000 FEET WITH
NO SIGNIFICANT WEATHER AND/OR OBSTRUCTIONS TO VISIBILITY.

* THESE REPORTS ARE NOT UNDER NWS QUALITY CONTROL AND MAY NOT
  REPORT WEATHER SUCH AS PRECIPITATION AND FOG.


TNZ005>011-023>034-057-059-062>066-078-080-180100
...NORTHERN MIDDLE TENNESSEE...

CITY           SKY/WX    TMP DP  RH WIND       PRES   REMARKS
CASTALIAN SPRG   N/A     68  34  28 S1          N/A
CLARKSVILLE    CLEAR     63  37  38 SE8       30.23F
COLUMBIA       CLEAR     64  46  52 S7        30.23S
CROSSVILLE     CLEAR     60  30  32 CALM      30.30S
GALLATIN         N/A     66  35  31 SE3       30.27S
DICKSON        CLEAR     64  32  29 SE5       30.24F
FAIRFIELD GLAD   N/A     57  36  44 CALM        N/A
LAFAYETTE*       N/A     66  30  26 S3          N/A
LIVINGSTON     CLEAR     62  27  26 S5        30.28R
MONTEREY         N/A     57  36  44 CALM        N/A
MOUNT JULIET*    N/A     66  36  32 CALM        N/A
NASHVILLE      MOCLDY    63  37  38 S5        30.26S
PEGRAM*          N/A    N/A N/A N/A SE1         N/A
PORTLAND       PTCLDY    63  34  34 SE6       30.25S
SMYRNA         PTCLDY    65  37  35 S3        30.26F
SPARTA         CLEAR     64  36  34 S5        30.26F
SPRINGFIELD*     N/A     63  43  48 MISG        N/A
WHITE BLUFF*     N/A     64  34  32 CALM        N/A
$$
TNZ056-058-060-061-075>077-079-093>097-180100
...SOUTHERN MIDDLE TENNESSEE...

CITY           SKY/WX    TMP DP  RH WIND       PRES   REMARKS
EAGLEVILLE*      N/A    N/A N/A N/A CALM        N/A
FAYETTEVILLE   CLOUDY    61  41  47 SE5       30.26S
HOHENWALD*       N/A     64  39  39 E3          N/A
LEWISBURG      PTCLDY    63  44  49 S5        30.25S
MCMINNVILLE      N/A     64  38  38 CALM      30.27S
MURFREESBORO   PTCLDY    66  36  33 S3        30.25S
SHELBYVILLE    PTCLDY    63  45  51 S5        30.27R
TULLAHOMA      CLEAR     63  37  39 S5        30.28R
WINCHESTER     CLEAR     63  41  45 SE7       30.28R
$$


...KEY TO REMARKS...
VSB - VISIBILITY IN MILES
WCI - WIND CHILL INDEX
HX  - HEAT INDEX




USA.gov is the U.S. government's official web portal to all federal, state and local government web resources and services.